| time (UTC) | temp F | wind direction | speed MPH | gust MPH | rain 1hr in | rain 24hr in | rain mn in | humidity % | barometer mb |
| 20260508010003 | 56 | 271 | 4.0 | 9.0 | 0.00 | 0.52 | 0.52 | 46 | 1007.5 |
| 20260508005003 | 56 | 261 | 5.0 | 11.0 | 0.00 | 0.52 | 0.52 | 44 | 1007.5 |
| 20260508004003 | 56 | 258 | 6.0 | 11.0 | 0.00 | 0.52 | 0.52 | 44 | 1007.7 |
| 20260508003024 | 57 | 257 | 4.0 | 13.0 | 0.00 | 0.52 | 0.52 | 43 | 1006.8 |
| 20260508002003 | 57 | 299 | 5.0 | 13.0 | 0.00 | 0.52 | 0.52 | 42 | 1006.4 |
| 20260508001003 | 58 | 277 | 5.0 | 13.0 | 0.00 | 0.53 | 0.52 | 42 | 1006.4 |
| 20260508000003 | 58 | 290 | 7.0 | 13.0 | 0.00 | 0.53 | 0.52 | 42 | 1006.2 |
| 20260507235003 | 59 | 322 | 5.0 | 18.0 | 0.00 | 0.53 | 0.52 | 42 | 1006.2 |
| 20260507234024 | 59 | 306 | 9.0 | 19.0 | 0.00 | 0.54 | 0.52 | 40 | 1006.1 |
| 20260507233003 | 60 | 322 | 7.0 | 19.0 | 0.00 | 0.54 | 0.52 | 39 | 1006.0 |
| 20260507232003 | 60 | 299 | 5.0 | 21.0 | 0.00 | 0.54 | 0.52 | 39 | 1006.0 |
| 20260507231024 | 61 | 307 | 11.0 | 21.0 | 0.00 | 0.55 | 0.52 | 37 | 1005.9 |
| 20260507230003 | 61 | 297 | 12.0 | 22.0 | 0.00 | 0.55 | 0.52 | 37 | 1005.7 |
| 20260507225003 | 62 | 293 | 12.0 | 22.0 | 0.00 | 0.56 | 0.52 | 36 | 1005.5 |
| 20260507224003 | 62 | 307 | 9.0 | 20.0 | 0.00 | 0.57 | 0.52 | 35 | 1005.4 |
| 20260507223003 | 62 | 289 | 13.0 | 20.0 | 0.00 | 0.57 | 0.52 | 37 | 1005.4 |
| 20260507222024 | 63 | 297 | 14.0 | 23.0 | 0.00 | 0.58 | 0.52 | 36 | 1005.2 |
| 20260507221003 | 63 | 335 | 11.0 | 23.0 | 0.00 | 0.58 | 0.52 | 37 | 1005.4 |
| 20260507220003 | 64 | 320 | 13.0 | 21.0 | 0.00 | 0.59 | 0.52 | 37 | 1005.2 |
| 20260507215024 | 64 | 257 | 8.0 | 16.0 | 0.00 | 0.59 | 0.52 | 38 | 1005.1 |
| 20260507214003 | 64 | 260 | 8.0 | 16.0 | 0.00 | 0.59 | 0.52 | 38 | 1005.1 |
| 20260507213003 | 65 | 262 | 8.0 | 21.0 | 0.00 | 0.59 | 0.52 | 36 | 1005.0 |
| 20260507212003 | 65 | 262 | 4.0 | 21.0 | 0.00 | 0.59 | 0.52 | 37 | 1005.0 |
| 20260507211004 | 65 | 337 | 9.0 | 17.0 | 0.00 | 0.59 | 0.52 | 37 | 1005.0 |
| 20260507210003 | 65 | 331 | 9.0 | 15.0 | 0.00 | 0.59 | 0.52 | 37 | 1004.8 |
| 20260507205003 | 65 | 261 | 6.0 | 16.0 | 0.00 | 0.59 | 0.52 | 40 | 1004.9 |
| 20260507204003 | 65 | 309 | 12.0 | 18.0 | 0.00 | 0.59 | 0.52 | 34 | 1004.8 |
| 20260507203003 | 66 | 265 | 10.0 | 18.0 | 0.00 | 0.59 | 0.52 | 37 | 1004.9 |
| 20260507202003 | 65 | 249 | 6.0 | 14.0 | 0.00 | 0.59 | 0.52 | 39 | 1004.7 |
| 20260507201003 | 65 | 101 | 6.0 | 14.0 | 0.00 | 0.59 | 0.52 | 43 | 1004.8 |
| 20260507200003 | 65 | 303 | 7.0 | 12.0 | 0.00 | 0.59 | 0.52 | 49 | 1004.9 |
| 20260507195024 | 64 | 200 | 5.0 | 17.0 | 0.00 | 0.59 | 0.52 | 47 | 1005.0 |
| 20260507194024 | 64 | 183 | 8.0 | 17.0 | 0.00 | 0.59 | 0.52 | 54 | 1005.3 |
| 20260507193003 | 64 | 208 | 8.0 | 16.0 | 0.00 | 0.59 | 0.52 | 61 | 1005.4 |
| 20260507192003 | 64 | 225 | 5.0 | 20.0 | 0.00 | 0.59 | 0.52 | 63 | 1005.7 |
| 20260507191003 | 63 | 192 | 8.0 | 20.0 | 0.00 | 0.59 | 0.52 | 69 | 1005.7 |
| 20260507190004 | 63 | 178 | 12.0 | 17.0 | 0.00 | 0.59 | 0.52 | 69 | 1005.7 |
| 20260507185003 | 62 | 189 | 11.0 | 19.0 | 0.00 | 0.59 | 0.52 | 70 | 1005.9 |
| 20260507184003 | 62 | 191 | 11.0 | 19.0 | 0.00 | 0.59 | 0.52 | 71 | 1006.1 |
| 20260507183023 | 61 | 184 | 14.0 | 19.0 | 0.00 | 0.59 | 0.52 | 74 | 1006.3 |
| 20260507182003 | 61 | 216 | 8.0 | 18.0 | 0.00 | 0.59 | 0.52 | 72 | 1006.5 |
| 20260507181003 | 60 | 181 | 15.0 | 20.0 | 0.00 | 0.59 | 0.52 | 72 | 1006.5 |
| 20260507180024 | 60 | 176 | 14.0 | 22.0 | 0.00 | 0.59 | 0.52 | 72 | 1006.5 |
| 20260507175003 | 59 | 182 | 17.0 | 22.0 | 0.00 | 0.59 | 0.52 | 72 | 1006.6 |
| 20260507174003 | 60 | 187 | 11.0 | 20.0 | 0.00 | 0.59 | 0.52 | 71 | 1006.8 |
| 20260507173003 | 61 | 192 | 7.0 | 18.0 | 0.00 | 0.59 | 0.52 | 68 | 1007.0 |
| 20260507172024 | 61 | 202 | 10.0 | 18.0 | 0.00 | 0.59 | 0.52 | 67 | 1006.9 |
| 20260507171024 | 62 | 190 | 12.0 | 16.0 | 0.00 | 0.59 | 0.52 | 69 | 1007.0 |
| 20260507170025 | 62 | 204 | 6.0 | 16.0 | 0.00 | 0.59 | 0.52 | 68 | 1007.1 |
| 20260507165003 | 64 | 216 | 7.0 | 11.0 | 0.00 | 0.59 | 0.52 | 64 | 1007.2 |
| 20260507164024 | 65 | 240 | 5.0 | 13.0 | 0.00 | 0.59 | 0.52 | 61 | 1007.4 |
| 20260507163024 | 64 | 333 | 5.0 | 16.0 | 0.00 | 0.59 | 0.52 | 56 | 1007.0 |
| 20260507162003 | 62 | 292 | 3.0 | 16.0 | 0.00 | 0.59 | 0.52 | 60 | 1007.5 |
| 20260507161002 | 63 | 340 | 11.0 | 16.0 | 0.00 | 0.59 | 0.52 | 58 | 1007.3 |
| 20260507160003 | 63 | 345 | 9.0 | 13.0 | 0.00 | 0.59 | 0.52 | 59 | 1007.5 |
| 20260507155003 | 64 | 252 | 9.0 | 12.0 | 0.00 | 0.59 | 0.52 | 63 | 1008.0 |
| 20260507154003 | 63 | 359 | 4.0 | 13.0 | 0.00 | 0.59 | 0.52 | 61 | 1007.8 |
| 20260507153024 | 62 | 249 | 7.0 | 19.0 | 0.00 | 0.59 | 0.52 | 69 | 1008.0 |
| 20260507152003 | 61 | 311 | 7.0 | 19.0 | 0.00 | 0.59 | 0.52 | 68 | 1008.2 |
| 20260507151003 | 60 | 277 | 7.0 | 15.0 | 0.00 | 0.59 | 0.52 | 70 | 1008.3 |
| 20260507150003 | 60 | 58 | 5.0 | 16.0 | 0.00 | 0.59 | 0.52 | 73 | 1008.0 |
| 20260507145003 | 59 | 310 | 6.0 | 16.0 | 0.00 | 0.59 | 0.52 | 76 | 1008.0 |
| 20260507144003 | 58 | 341 | 8.0 | 15.0 | 0.00 | 0.59 | 0.52 | 73 | 1008.3 |
| 20260507143003 | 57 | 25 | 7.0 | 15.0 | 0.00 | 0.59 | 0.52 | 77 | 1008.0 |
| 20260507142003 | 56 | 270 | 7.0 | 13.0 | 0.00 | 0.59 | 0.52 | 85 | 1008.0 |
| 20260507141003 | 56 | 308 | 4.0 | 13.0 | 0.00 | 0.59 | 0.52 | 85 | 1008.4 |
| 20260507140003 | 55 | 271 | 7.0 | 12.0 | 0.01 | 0.59 | 0.52 | 86 | 1008.4 |
| 20260507135003 | 54 | 309 | 4.0 | 10.0 | 0.01 | 0.59 | 0.52 | 87 | 1008.5 |
| 20260507134003 | 52 | 310 | 5.0 | 11.0 | 0.01 | 0.59 | 0.52 | 88 | 1008.3 |
| 20260507133004 | 52 | 326 | 9.0 | 12.0 | 0.01 | 0.59 | 0.52 | 87 | 1008.5 |
| 20260507132003 | 52 | 354 | 5.0 | 12.0 | 0.02 | 0.59 | 0.51 | 87 | 1008.4 |
| 20260507131003 | 52 | 332 | 5.0 | 9.0 | 0.03 | 0.59 | 0.51 | 91 | 1008.3 |
| 20260507130003 | 51 | 345 | 6.0 | 9.0 | 0.03 | 0.59 | 0.51 | 90 | 1008.5 |
| 20260507125003 | 51 | 359 | 5.0 | 12.0 | 0.04 | 0.59 | 0.51 | 91 | 1008.2 |
| 20260507124003 | 50 | 10 | 6.0 | 12.0 | 0.04 | 0.58 | 0.50 | 93 | 1008.4 |
| 20260507123003 | 50 | 320 | 6.0 | 12.0 | 0.04 | 0.58 | 0.50 | 94 | 1008.7 |
| 20260507122024 | 49 | 303 | 5.0 | 8.0 | 0.05 | 0.57 | 0.50 | 94 | 1008.6 |
| 20260507121003 | 49 | 326 | 6.0 | 12.0 | 0.05 | 0.56 | 0.48 | 94 | 1008.5 |
| 20260507120004 | 49 | 5 | 3.0 | 12.0 | 0.05 | 0.55 | 0.48 | 94 | 1008.4 |
| 20260507115003 | 49 | 4 | 6.0 | 12.0 | 0.05 | 0.55 | 0.47 | 93 | 1008.5 |
| 20260507114024 | 49 | 17 | 4.0 | 13.0 | 0.05 | 0.55 | 0.47 | 93 | 1008.3 |
| 20260507113005 | 49 | 66 | 4.0 | 18.0 | 0.05 | 0.54 | 0.46 | 92 | 1008.5 |
| 20260507112003 | 49 | 331 | 9.0 | 23.0 | 0.04 | 0.52 | 0.44 | 92 | 1008.8 |
| 20260507111003 | 50 | 336 | 10.0 | 23.0 | 0.03 | 0.51 | 0.43 | 92 | 1008.5 |
| 20260507110003 | 50 | 6 | 13.0 | 19.0 | 0.04 | 0.50 | 0.42 | 93 | 1007.3 |
| 20260507105003 | 50 | 360 | 11.0 | 14.0 | 0.04 | 0.50 | 0.42 | 96 | 1007.4 |
| 20260507104003 | 51 | 286 | 5.0 | 13.0 | 0.04 | 0.50 | 0.42 | 96 | 1007.7 |
| 20260507103003 | 51 | 328 | 7.0 | 13.0 | 0.04 | 0.48 | 0.41 | 96 | 1007.7 |
| 20260507102003 | 51 | 345 | 7.0 | 18.0 | 0.06 | 0.48 | 0.41 | 96 | 1007.2 |
| 20260507101003 | 51 | 357 | 7.0 | 23.0 | 0.07 | 0.48 | 0.40 | 95 | 1007.5 |
| 20260507100003 | 51 | 353 | 12.0 | 23.0 | 0.08 | 0.46 | 0.39 | 93 | 1007.0 |
| 20260507095003 | 52 | 326 | 18.0 | 23.0 | 0.09 | 0.46 | 0.38 | 94 | 1007.3 |
| 20260507094004 | 52 | 352 | 9.0 | 19.0 | 0.10 | 0.45 | 0.37 | 95 | 1006.9 |
| 20260507093024 | 53 | 6 | 6.0 | 19.0 | 0.12 | 0.45 | 0.37 | 95 | 1007.0 |
| 20260507092003 | 53 | 346 | 8.0 | 15.0 | 0.15 | 0.42 | 0.35 | 95 | 1007.4 |
| 20260507091003 | 53 | 19 | 7.0 | 15.0 | 0.26 | 0.41 | 0.33 | 96 | 1007.1 |
| 20260507090003 | 54 | 317 | 9.0 | 12.0 | 0.29 | 0.39 | 0.31 | 96 | 1007.1 |
| 20260507085003 | 54 | 297 | 5.0 | 15.0 | 0.27 | 0.36 | 0.28 | 97 | 1006.8 |
| 20260507084003 | 55 | 286 | 5.0 | 15.0 | 0.26 | 0.35 | 0.28 | 98 | 1006.7 |
| 20260507083024 | 55 | 330 | 8.0 | 13.0 | 0.24 | 0.33 | 0.25 | 98 | 1006.6 |
| 20260507082003 | 55 | 263 | 6.0 | 12.0 | 0.18 | 0.27 | 0.19 | 97 | 1007.2 |
| 20260507081003 | 55 | 255 | 4.0 | 10.0 | 0.06 | 0.15 | 0.07 | 96 | 1006.5 |
| 20260507080004 | 55 | 268 | 2.0 | 3.0 | 0.00 | 0.09 | 0.02 | 95 | 1005.9 |
| 20260507075003 | 55 | 189 | 2.0 | 3.0 | 0.00 | 0.09 | 0.01 | 95 | 1006.0 |
| 20260507074003 | 55 | 194 | 2.0 | 3.0 | 0.00 | 0.09 | 0.01 | 95 | 1005.9 |
| 20260507073003 | 55 | 186 | 1.0 | 5.0 | 0.00 | 0.09 | 0.01 | 96 | 1006.0 |
| 20260507072003 | 55 | 151 | 1.0 | 6.0 | 0.00 | 0.09 | 0.01 | 96 | 1006.2 |
| 20260507071003 | 55 | 172 | 3.0 | 6.0 | 0.00 | 0.09 | 0.01 | 96 | 1006.1 |
| 20260507070004 | 55 | 173 | 4.0 | 5.0 | 0.00 | 0.09 | 0.01 | 96 | 1006.1 |
| 20260507065003 | 55 | 191 | 3.0 | 5.0 | 0.00 | 0.09 | 0.01 | 96 | 1006.3 |
| 20260507064024 | 55 | 206 | 2.0 | 5.0 | 0.00 | 0.09 | 0.01 | 96 | 1006.2 |
| 20260507063003 | 55 | 188 | 1.0 | 9.0 | 0.00 | 0.09 | 0.01 | 96 | 1006.3 |
| 20260507062003 | 55 | 138 | 2.0 | 9.0 | 0.00 | 0.09 | 0.01 | 96 | 1006.2 |
| 20260507061003 | 55 | 210 | 3.0 | 6.0 | 0.00 | 0.09 | 0.01 | 96 | 1006.7 |
| 20260507060003 | 55 | 191 | 2.0 | 6.0 | 0.01 | 0.09 | 0.01 | 96 | 1006.5 |
| 20260507055003 | 55 | 196 | 3.0 | 6.0 | 0.01 | 0.09 | 0.01 | 96 | 1006.8 |
| 20260507054003 | 55 | 206 | 3.0 | 7.0 | 0.01 | 0.09 | 0.01 | 96 | 1006.9 |
| 20260507053024 | 55 | 201 | 4.0 | 7.0 | 0.01 | 0.09 | 0.01 | 96 | 1007.0 |
| 20260507052003 | 55 | 194 | 4.0 | 7.0 | 0.01 | 0.09 | 0.01 | 96 | 1007.3 |
| 20260507051004 | 55 | 197 | 3.0 | 10.0 | 0.00 | 0.08 | 0.00 | 96 | 1007.3 |
| 20260507050003 | 55 | 214 | 5.0 | 10.0 | 0.00 | 0.08 | 0.00 | 96 | 1007.8 |
| 20260507045003 | 55 | 218 | 4.0 | 10.0 | 0.00 | 0.08 | 0.00 | 96 | 1007.4 |
| 20260507044003 | 55 | 224 | 5.0 | 9.0 | 0.00 | 0.08 | 0.00 | 96 | 1007.4 |
| 20260507043003 | 55 | 207 | 6.0 | 9.0 | 0.00 | 0.08 | 0.00 | 96 | 1007.3 |
| 20260507042003 | 55 | 205 | 4.0 | 13.0 | 0.00 | 0.08 | 0.00 | 96 | 1007.4 |
| 20260507041003 | 55 | 211 | 5.0 | 13.0 | 0.00 | 0.08 | 0.00 | 97 | 1007.4 |
| 20260507040004 | 55 | 219 | 7.0 | 13.0 | 0.00 | 0.08 | 0.00 | 97 | 1007.7 |
| 20260507035003 | 55 | 224 | 4.0 | 12.0 | 0.00 | 0.08 | 0.08 | 97 | 1007.9 |
| 20260507034004 | 55 | 222 | 6.0 | 14.0 | 0.00 | 0.08 | 0.08 | 97 | 1007.5 |
| 20260507033024 | 55 | 223 | 6.0 | 19.0 | 0.00 | 0.08 | 0.08 | 97 | 1007.9 |
| 20260507032003 | 55 | 240 | 9.0 | 19.0 | 0.00 | 0.08 | 0.08 | 97 | 1007.8 |
| 20260507031003 | 55 | 217 | 6.0 | 19.0 | 0.00 | 0.08 | 0.08 | 97 | 1007.5 |
| 20260507030003 | 55 | 213 | 9.0 | 19.0 | 0.00 | 0.08 | 0.08 | 97 | 1007.4 |
| 20260507025003 | 55 | 209 | 10.0 | 14.0 | 0.00 | 0.08 | 0.08 | 97 | 1007.5 |
| 20260507024003 | 55 | 218 | 8.0 | 17.0 | 0.00 | 0.08 | 0.08 | 97 | 1007.5 |
| 20260507023024 | 56 | 222 | 8.0 | 19.0 | 0.00 | 0.08 | 0.08 | 97 | 1007.7 |
| 20260507022003 | 56 | 213 | 10.0 | 19.0 | 0.00 | 0.08 | 0.08 | 97 | 1007.8 |
| 20260507021024 | 56 | 214 | 8.0 | 19.0 | 0.00 | 0.08 | 0.08 | 97 | 1007.9 |
| 20260507020003 | 56 | 219 | 10.0 | 19.0 | 0.00 | 0.08 | 0.08 | 97 | 1008.0 |
| 20260507015003 | 56 | 223 | 10.0 | 16.0 | 0.00 | 0.08 | 0.08 | 97 | 1008.3 |
| 20260507014003 | 56 | 221 | 8.0 | 19.0 | 0.00 | 0.08 | 0.08 | 97 | 1008.1 |
| 20260507013003 | 56 | 233 | 11.0 | 21.0 | 0.01 | 0.08 | 0.08 | 97 | 1008.5 |
| 20260507012003 | 56 | 231 | 11.0 | 21.0 | 0.01 | 0.08 | 0.08 | 97 | 1008.6 |
| 20260507011003 | 56 | 215 | 8.0 | 18.0 | 0.01 | 0.07 | 0.07 | 97 | 1008.5 |